IR2UDS Weather Reports


time (UTC)temp
F
wind
direction
speed
knots
gust
knots
rain 1hr
in
rain 24hr
in
rain mn
in
humidity
%
barometer
mb
20260506225319 41 188 13.0 25.2 0.00 0.48 0.00 85 1010.6
20260506224314 41 215 18.2 23.5 0.01 0.48 0.00 84 1010.3
20260506221322 41 201 17.4 26.9 0.01 0.48 0.00 84 1010.3
20260506220319 41 192 19.1 28.7 0.01 0.48 0.00 83 1010.3
20260506215332 41 188 20.0 26.9 0.01 0.48 0.48 82 1010.4
20260506214328 41 185 20.0 30.4 0.00 0.47 0.47 80 1010.4
20260506205323 42 198 21.7 30.4 0.01 0.47 0.47 76 1010.2
20260506202318 42 170 15.6 28.7 0.01 0.47 0.47 79 1010.3
20260506201327 42 173 15.6 21.7 0.01 0.46 0.46 80 1010.4
20260506200328 41 178 6.1 16.5 0.01 0.47 0.46 81 1010.7
20260506195328 41 151 7.0 12.2 0.01 0.47 0.46 81 1010.5
20260506193321 41 93 4.3 8.7 0.01 0.47 0.46 81 1010.4
20260506191314 41 157 9.6 20.9 0.01 0.46 0.45 82 1009.8
20260506190327 41 200 18.2 24.3 0.01 0.46 0.45 82 1009.2
20260506184322 41 205 13.0 20.0 0.01 0.46 0.45 84 1009.3
20260506183315 41 147 12.2 19.1 0.01 0.46 0.45 83 1009.4
20260506181326 42 209 17.4 24.3 0.01 0.45 0.44 81 1008.6
20260506180323 42 196 18.2 30.4 0.01 0.45 0.44 80 1008.3
20260506175318 42 195 25.2 33.0 0.01 0.45 0.44 80 1007.9
20260506174313 43 214 22.6 30.4 0.01 0.45 0.44 79 1007.9
20260506173327 43 212 20.0 31.3 0.02 0.45 0.44 80 1007.8
20260506172320 43 196 20.9 34.8 0.01 0.44 0.43 79 1007.7
20260506171319 43 197 22.6 31.3 0.01 0.44 0.43 79 1007.4
20260506164324 44 207 16.5 28.7 0.02 0.44 0.43 80 1007.6
20260506163318 45 213 19.1 31.3 0.01 0.43 0.42 78 1007.5
20260506162317 45 189 20.0 29.5 0.01 0.43 0.42 79 1007.5
20260506161331 45 199 16.5 26.9 0.02 0.43 0.42 78 1007.6
20260506160325 46 169 17.4 28.7 0.02 0.43 0.42 75 1007.6
20260506155317 46 235 20.9 27.8 0.01 0.42 0.41 75 1007.4
20260506154331 47 198 15.6 25.2 0.02 0.42 0.41 73 1007.6
20260506153328 47 198 15.6 25.2 0.02 0.42 0.41 72 1007.8
20260506152320 48 220 15.6 25.2 0.02 0.42 0.41 73 1007.9
20260506151313 48 196 20.9 30.4 0.02 0.41 0.40 65 1007.5
20260506141315 48 224 11.3 19.1 0.02 0.40 0.38 74 1008.3
20260506140328 48 211 15.6 24.3 0.03 0.40 0.38 75 1008.0
20260506135322 48 196 13.9 21.7 0.02 0.39 0.37 73 1008.2
20260506134321 48 178 13.0 21.7 0.03 0.39 0.37 73 1008.4
20260506133315 48 227 11.3 24.3 0.04 0.39 0.37 74 1008.5
20260506131326 48 226 14.8 26.9 0.04 0.38 0.36 77 1008.5
20260506130319 49 211 10.4 24.3 0.03 0.37 0.35 78 1008.7
20260506121318 48 211 17.4 25.2 0.03 0.34 0.32 76 1008.1
20260506120312 48 212 15.6 28.7 0.04 0.35 0.32 80 1008.4
20260506114324 47 183 20.0 31.3 0.04 0.34 0.31 82 1008.2
20260506113317 47 182 13.9 23.5 0.03 0.33 0.30 83 1008.2
20260506112331 47 195 16.5 23.5 0.04 0.33 0.30 84 1008.2
20260506110319 47 186 12.2 21.7 0.02 0.35 0.28 85 1008.5
20260506104332 46 200 12.2 29.5 0.02 0.34 0.27 86 1008.6
20260506103326 47 223 12.2 23.5 0.03 0.34 0.27 88 1008.2
20260506102318 46 196 17.4 29.5 0.02 0.33 0.26 89 1008.2
20260506094326 45 214 11.3 17.4 0.03 0.32 0.25 90 1008.4
20260506091332 46 194 8.7 15.6 0.03 0.31 0.24 90 1008.5
20260506073321 44 190 10.4 21.7 0.03 0.43 0.19 90 1008.0
20260506072315 44 11 2.6 12.2 0.03 0.43 0.19 90 1007.9
20260506071328 44 37 0.9 3.5 0.03 0.42 0.18 90 1008.0
20260506062327 44 96 0.9 6.1 0.03 0.55 0.16 90 1008.4
20260506061321 44 57 2.6 5.2 0.03 0.54 0.15 90 1008.5
20260506060319 43 71 0.9 2.6 0.03 0.63 0.15 90 1008.6
20260506051315 43 16 4.3 7.8 0.03 0.60 0.12 89 1009.4
20260506050312 43 92 2.6 8.7 0.03 0.72 0.12 89 1009.3
20260506041313 41 67 2.6 4.3 0.04 0.69 0.09 89 1009.6
20260506034320 40 62 1.7 4.3 0.03 0.73 0.07 89 1009.5
20260506033314 40 157 0.0 4.3 0.04 0.73 0.07 88 1009.9
20260506030323 41 66 3.5 6.1 0.04 0.74 0.05 88 1010.3
20260506025313 41 81 0.9 3.5 0.03 0.73 0.04 89 1010.6
20260506023321 41 34 2.6 4.3 0.03 0.72 0.03 89 1010.5
20260506022317 41 16 3.5 3.5 0.03 0.72 0.03 89 1010.7
20260506012314 43 144 0.0 1.7 0.00 0.69 0.00 89 1011.0
20260506010327 43 174 4.3 6.1 0.00 0.69 0.00 89 1011.3
20260506004316 43 182 2.6 7.0 0.00 0.69 0.00 89 1011.2
20260506003327 43 188 6.1 9.6 0.00 0.69 0.00 89 1011.3
20260506002322 43 177 8.7 13.0 0.00 0.69 0.00 89 1011.3
20260506001321 43 210 10.4 13.9 0.00 0.69 0.00 90 1011.0
20260505235328 43 182 7.0 11.3 0.00 0.69 0.00 89 1011.7
20260505234322 42 207 7.0 9.6 0.00 0.69 0.00 89 1011.8
20260505232313 42 200 8.7 11.3 0.00 0.69 0.00 90 1011.8
20260505231327 42 196 7.0 10.4 0.00 0.69 0.00 90 1012.0